[[{"header":{"parameterUnit":"m.s-1","parameterCategory":1,"la1":30.2991,"la2":30.254,"lo1":-89.0895,"lo2":-89.0444,"dy":0.0017,"dx":0.0017,"nx":28,"ny":28,"refTime":"2023-08-16T09:00:00:Z","depth":0,"parameterNumber":2,"parameterNumberName":"U-component_of_WINDS"},"data":[0,0,0,0,0,0,0,0,0,0,0,0,0,0,0,0,0,0,0,0,0,0,0,0,0,0,0,0,0,0,0,0,0,0,0,0,0,0,0,0,0,0,0,0,0,0,0,0,0,0,0,0,0,0,0,0,0,0,0.6512,0.6513,0,0.6602,0.6603,0.6604,0.6688,0.6689,0.669,0.6691,0.6782,0.6784,0.6785,0,0,0,0,0,0,0,0,0,0,0,0,0,0.6412,0.6413,0.6512,0.6513,0.6514,0.6602,0.6603,0.6604,0.6688,0.6689,0.669,0.6691,0.6782,0.6783,0.6785,0,0,0,0,0,0,0,0,0,0,0,0,0,0.6474,0.6413,0.6512,0.6567,0.6572,0.6602,0.6603,0.6605,0.6687,0.6689,0.669,0.6692,0.6781,0.6783,0.6785,0.6768,0,0,0.6792,0.6793,0,0,0,0,0,0,0,0,0.647,0.6477,0.6557,0.6563,0.6569,0.6635,0.6601,0.6659,0.6687,0.6644,0.6691,0.6693,0.6732,0.6738,0.6752,0.6772,0.6776,0.6792,0.6794,0.6795,0.6795,0,0,0,0,0,0,0,0.6466,0.6474,0.6548,0.6558,0.6566,0.6586,0.6597,0.6613,0.6678,0.6647,0.6654,0.6663,0.6736,0.6749,0.6754,0.6777,0.6792,0.6794,0.6796,0.6796,0.6786,0.6785,0,0,0,0,0,0,0.6453,0.647,0.6545,0.655,0.6522,0.6587,0.6598,0.6613,0.6678,0.6689,0.6662,0.6667,0.6745,0.6752,0.6758,0.674,0.6795,0.6797,0.6798,0.6788,0.6786,0.6784,0,0,0,0,0,0,0.6451,0.6459,0.6541,0.6512,0.6524,0.6587,0.6602,0.6613,0.6627,0.6689,0.6701,0.6664,0.6746,0.6755,0.6764,0.6745,0.6798,0.68,0.6789,0.6787,0.6785,0.6706,0,0,0,0,0,0,0.6447,0.6458,0.6452,0.6511,0.6525,0.6546,0.6601,0.6614,0.6631,0.6638,0.6694,0.6705,0.6748,0.6761,0.6767,0.6749,0.6801,0.6792,0.6788,0.6786,0.671,0.6701,0.6693,0,0,0,0,0,0.6443,0.6426,0.6451,0.646,0.6519,0.6545,0.6553,0.6603,0.6629,0.6624,0.6663,0.6703,0.6746,0.6761,0.6768,0.6751,0.6793,0.6789,0.6786,0.6714,0.6703,0.6693,0,0,0,0,0,0,0.6363,0.6435,0.6464,0.6465,0.6498,0.6559,0.6554,0.659,0.6617,0.6622,0.6684,0.6695,0.6697,0.6726,0.6741,0.6736,0.6775,0.6773,0.6718,0.6708,0.6699,0.6692,0.6803,0,0,0,0,0,0.6346,0.6361,0.6423,0.6418,0.6434,0.649,0.6504,0.6539,0.6576,0.6591,0.6631,0.6665,0.6686,0.6699,0.6722,0.6715,0.6727,0.6707,0.6698,0.669,0.6687,0.6684,0.6675,0.6772,0.6772,0.6772,0,0,0.631,0.6351,0.6357,0.6403,0.6433,0.6447,0.6502,0.6514,0.6525,0.6593,0.6604,0.6634,0.6676,0.6677,0.6679,0.67,0.6663,0.6686,0.6679,0.668,0.6679,0.667,0.6662,0.677,0.677,0.6771,0,0,0.6251,0.6284,0.6283,0.6312,0.6357,0.6394,0.6394,0.6449,0.6472,0.6484,0.6535,0.6548,0.6583,0.6611,0.6629,0.6579,0.6616,0.6585,0.6538,0.6535,0.6527,0.652,0.6501,0.6493,0.6582,0.6581,0.6581,0,0.6201,0.6224,0.6278,0.6287,0.6306,0.6368,0.6366,0.6392,0.6441,0.6452,0.6475,0.6519,0.6552,0.6559,0.6547,0.656,0.6561,0.6578,0.6524,0.6518,0.6512,0.6495,0.6487,0.6577,0.6578,0.6578,0.6578,0,0.6159,0.6174,0.6168,0.6213,0.6231,0.6235,0.6289,0.6301,0.6335,0.6369,0.638,0.6421,0.6453,0.6458,0.6491,0.6469,0.648,0.6512,0.6552,0.6498,0.6482,0.6476,0.6571,0.6573,0.6574,0.6575,0,0,0.6052,0.6128,0.6124,0.6145,0.6198,0.6211,0.6217,0.6247,0.6255,0.6287,0.6293,0.6321,0.635,0.6371,0.6408,0.6405,0.636,0.6438,0.644,0.642,0.6336,0.6311,0.6302,0.6386,0.6385,0.6384,0.6332,0,0.6001,0.6016,0.6065,0.6065,0.6078,0.6137,0.6142,0.6174,0.6207,0.6223,0.6259,0.6277,0.6316,0.6328,0.6328,0.6366,0.6344,0.637,0.639,0.6391,0.6377,0.6294,0.6267,0.6217,0.6327,0.6326,0.6325,0,0.5944,0.5971,0.5972,0.6023,0.6031,0.6035,0.6066,0.6081,0.6119,0.6142,0.6165,0.6206,0.6214,0.6252,0.6264,0.628,0.6291,0.6311,0.631,0.6313,0.6353,0.6293,0.6202,0.6193,0.6316,0.6317,0.6317,0,0.5864,0.5901,0.5906,0.5923,0.5983,0.5984,0.6009,0.6048,0.6063,0.609,0.61,0.6128,0.6143,0.6163,0.621,0.6233,0.6216,0.6258,0.6235,0.6233,0.6228,0.6227,0.6135,0.6237,0.6237,0.6237,0.6237,0,0.5801,0.5799,0.5871,0.5874,0.5873,0.5928,0.5926,0.5956,0.599,0.5999,0.6052,0.6059,0.6122,0.6136,0.6173,0.6176,0.6183,0.6201,0.6211,0.6196,0.6193,0.6203,0.6207,0.6235,0.6235,0.6236,0.6236,0,0.5712,0.576,0.5769,0.5825,0.5839,0.5835,0.5883,0.5888,0.5923,0.5934,0.594,0.5995,0.6014,0.6063,0.6096,0.612,0.6113,0.6131,0.61,0.6105,0.6079,0.608,0.5989,0.5979,0.6088,0.6087,0.6086,0,0.5668,0.5667,0.5723,0.5733,0.5756,0.5771,0.5786,0.5841,0.5854,0.5896,0.5895,0.5919,0.594,0.5968,0.601,0.6035,0.6054,0.602,0.6058,0.6042,0.6051,0.605,0.6049,0.6011,0.601,0.6009,0.6008,0,0.5584,0.5608,0.5628,0.5656,0.5672,0.5697,0.5724,0.5729,0.579,0.5802,0.5823,0.5839,0.5871,0.5893,0.5924,0.5949,0.5988,0.5996,0.5991,0.5975,0.5956,0.5964,0.6075,0.5997,0.5998,0.5999,0.6,0.6,0.5515,0.5517,0.5556,0.5576,0.5602,0.5626,0.5633,0.5669,0.5687,0.5717,0.5748,0.5764,0.5801,0.5846,0.5868,0.5881,0.5902,0.5896,0.5894,0.5891,0.5884,0.5955,0.5887,0.5888,0.5888,0.5888,0.5889,0,0.5433,0.5461,0.5479,0.5515,0.553,0.5566,0.5598,0.5608,0.5622,0.5653,0.5672,0.5694,0.5715,0.5759,0.5784,0.5786,0.5804,0.579,0.579,0.5795,0.5865,0.5865,0.5775,0.5775,0.5775,0.5775,0.5775,0.5775,0.5392,0.5396,0.5424,0.5441,0.5469,0.5486,0.55,0.5522,0.5547,0.5569,0.5587,0.5616,0.5651,0.5679,0.5699,0.5712,0.5717,0.5697,0.5715,0.578,0.579,0.58,0.5801,0.5699,0.5699,0.5644,0.5643,0.5643]},{"header":{"parameterUnit":"m.s-1","parameterCategory":1,"la1":30.2991,"la2":30.254,"lo1":-89.0895,"lo2":-89.0444,"dy":0.0017,"dx":0.0017,"nx":28,"ny":28,"refTime":"2023-08-16T09:00:00:Z","depth":0,"parameterNumber":3,"parameterNumberName":"V-component_of_WINDS"},"data":[0,0,0,0,0,0,0,0,0,0,0,0,0,0,0,0,0,0,0,0,0,0,0,0,0,0,0,0,0,0,0,0,0,0,0,0,0,0,0,0,0,0,0,0,0,0,0,0,0,0,0,0,0,0,0,0,0,0,1.8485,1.8485,0,1.8555,1.8556,1.8557,1.8599,1.86,1.86,1.86,1.867,1.8672,1.8673,0,0,0,0,0,0,0,0,0,0,0,0,0,1.8382,1.8383,1.8484,1.8485,1.8486,1.8555,1.8556,1.8557,1.8599,1.86,1.86,1.86,1.8669,1.8671,1.8673,0,0,0,0,0,0,0,0,0,0,0,0,0,1.8437,1.8384,1.8484,1.8516,1.8519,1.8555,1.8556,1.8557,1.8599,1.86,1.86,1.86,1.8669,1.8671,1.8674,1.8683,0,0,1.8681,1.8682,0,0,0,0,0,0,0,0,1.8434,1.844,1.851,1.8514,1.8518,1.8569,1.8546,1.8599,1.8599,1.8569,1.86,1.86,1.8636,1.8641,1.8654,1.8686,1.8689,1.8682,1.8683,1.8684,1.8685,0,0,0,0,0,0,0,1.843,1.8438,1.8512,1.8511,1.8516,1.8525,1.8533,1.8556,1.86,1.8571,1.8575,1.8583,1.8638,1.8651,1.8656,1.869,1.8681,1.8684,1.8685,1.8686,1.8731,1.8731,0,0,0,0,0,0,1.8421,1.8434,1.851,1.8515,1.8476,1.8526,1.8536,1.8552,1.86,1.8607,1.8582,1.8584,1.8647,1.8653,1.8658,1.8671,1.8684,1.8686,1.8688,1.8731,1.8731,1.873,0,0,0,0,0,0,1.8419,1.8428,1.8507,1.8475,1.8486,1.8528,1.8546,1.8553,1.8567,1.8608,1.8615,1.8588,1.8647,1.8655,1.8676,1.8674,1.8688,1.869,1.8732,1.8731,1.8731,1.8696,0,0,0,0,0,0,1.8416,1.8427,1.8432,1.8475,1.8488,1.8525,1.8546,1.8554,1.8571,1.8574,1.8615,1.8622,1.8648,1.8672,1.8678,1.8677,1.8692,1.8732,1.8731,1.8731,1.8698,1.8695,1.8692,0,0,0,0,0,1.8412,1.8419,1.8432,1.8441,1.8495,1.8525,1.8532,1.8562,1.8571,1.8575,1.8601,1.8621,1.8673,1.8674,1.8681,1.8681,1.8732,1.8732,1.8731,1.8699,1.8695,1.8692,0,0,0,0,0,0,1.8375,1.8426,1.844,1.8462,1.8489,1.8532,1.8539,1.8558,1.8582,1.8584,1.862,1.8629,1.8646,1.8666,1.8666,1.8691,1.8705,1.8705,1.8678,1.8674,1.8671,1.8666,1.8694,0,0,0,0,0,1.8369,1.839,1.8433,1.8448,1.8461,1.8497,1.8512,1.8532,1.8561,1.8573,1.86,1.8627,1.8649,1.8663,1.8686,1.87,1.8709,1.8704,1.8701,1.8698,1.8698,1.8705,1.8703,1.8728,1.8728,1.8728,0,0,1.8358,1.8388,1.8399,1.8441,1.8465,1.8484,1.8507,1.8527,1.8541,1.8576,1.8597,1.8618,1.865,1.8667,1.8676,1.8684,1.8693,1.8697,1.8695,1.8697,1.8704,1.8702,1.87,1.8728,1.8728,1.8728,0,0,1.8346,1.8372,1.8387,1.8409,1.8444,1.8468,1.8471,1.8511,1.8526,1.8548,1.8574,1.859,1.8628,1.8649,1.8665,1.8658,1.8676,1.8664,1.8649,1.8655,1.8653,1.8652,1.8648,1.8646,1.8664,1.8664,1.8664,0,1.8328,1.8359,1.8391,1.841,1.8426,1.8458,1.8471,1.8491,1.8531,1.8541,1.855,1.8596,1.862,1.8642,1.864,1.8652,1.8655,1.866,1.8651,1.865,1.8649,1.8645,1.8644,1.8662,1.8663,1.8663,1.8663,0,1.8333,1.8354,1.8362,1.8399,1.8417,1.8432,1.8465,1.8479,1.8497,1.8519,1.854,1.8569,1.8597,1.8604,1.8623,1.8627,1.8631,1.8645,1.8659,1.8644,1.8641,1.864,1.866,1.8661,1.8661,1.8662,0,0,1.8303,1.8356,1.8358,1.8375,1.8414,1.843,1.8446,1.8473,1.8483,1.8509,1.8522,1.8552,1.8564,1.8582,1.8602,1.8608,1.8598,1.8621,1.8622,1.8614,1.8603,1.8592,1.859,1.861,1.861,1.861,1.86,0,1.8297,1.8328,1.8356,1.8376,1.8395,1.8423,1.8437,1.8461,1.8482,1.8499,1.8521,1.8541,1.8557,1.8567,1.8574,1.8598,1.8596,1.8599,1.8621,1.8621,1.8612,1.8589,1.8578,1.8567,1.8599,1.8599,1.8599,0,1.8295,1.8319,1.8341,1.8376,1.8384,1.8396,1.8422,1.8439,1.8466,1.848,1.8498,1.852,1.8535,1.8547,1.8569,1.857,1.858,1.8593,1.8593,1.8596,1.8609,1.859,1.8564,1.8562,1.8598,1.8598,1.8598,0,1.8269,1.8306,1.8324,1.8337,1.8378,1.8385,1.8403,1.843,1.8444,1.8466,1.8475,1.8499,1.8512,1.8529,1.8555,1.8561,1.8572,1.8587,1.8583,1.8582,1.8584,1.8584,1.8559,1.8592,1.8592,1.8592,1.8592,0,1.8259,1.8271,1.8312,1.8323,1.8336,1.8367,1.8379,1.8398,1.8422,1.8435,1.8461,1.8473,1.8508,1.8523,1.8543,1.8556,1.8562,1.8573,1.8578,1.857,1.8569,1.8577,1.8578,1.8592,1.8592,1.8592,1.8592,0,1.8233,1.8261,1.8282,1.8318,1.8327,1.8335,1.8366,1.8376,1.8397,1.8414,1.8419,1.8452,1.8471,1.8498,1.8526,1.854,1.8549,1.8558,1.854,1.8543,1.8537,1.8536,1.8516,1.8514,1.8549,1.8549,1.8548,0,1.8225,1.8234,1.8271,1.8282,1.8299,1.8316,1.833,1.8359,1.8372,1.8402,1.8408,1.8429,1.8448,1.8476,1.8502,1.8522,1.8531,1.8522,1.8534,1.8525,1.8529,1.8528,1.8528,1.8519,1.8519,1.8518,1.8518,0,1.8207,1.8219,1.8239,1.8262,1.8277,1.8297,1.8318,1.8325,1.8358,1.8371,1.8391,1.8405,1.8432,1.8452,1.8475,1.8492,1.8509,1.8514,1.8514,1.8505,1.8494,1.8498,1.8531,1.8514,1.8515,1.8515,1.8515,1.8515,1.8189,1.8198,1.8224,1.8244,1.8262,1.828,1.8291,1.8312,1.8329,1.8354,1.8369,1.8388,1.8411,1.8445,1.846,1.8473,1.8481,1.8481,1.8481,1.848,1.8477,1.8492,1.8478,1.8478,1.8478,1.8478,1.8478,0,1.8171,1.8189,1.8206,1.8234,1.8248,1.8264,1.8287,1.8298,1.8313,1.8334,1.8351,1.8372,1.839,1.8416,1.8436,1.8441,1.845,1.8446,1.8445,1.8448,1.847,1.8467,1.8438,1.8438,1.8438,1.8438,1.8438,1.8438,1.8164,1.8179,1.8194,1.8217,1.8234,1.8252,1.8263,1.8279,1.8296,1.8318,1.8333,1.835,1.8372,1.8393,1.8409,1.8416,1.8422,1.8414,1.8424,1.8443,1.8447,1.845,1.8448,1.8416,1.8416,1.8401,1.8401,1.8401]}]]